Temp
7 8 9 8 11 12 13 14 14 14 15 15 16 16 16 16 17 17 17 17 17 18 18 18 18 18 18 18 18 18 18 19 19 19 19 19 19 19 20 20 20 20 19
5 7 8 9 11 11 12 13 13 14 14 14 15 15 16 16 16 16 16 17 17 17 17 17 17 17 17 18 18 18 17 18 19 19 19 19 19 19 19 19 20 19 19
4 6 7 8 10 10 11 12 12 12 13 14 14 14 15 15 15 15 15 16 16 16 16 16 17 17 17 17 18 17 18 18 19 19 19 20 20 19 19 19 19 20 19
3 5 6 7 9 10 10 10 11 11 12 12 13 13 14 14 14 14 14 15 15 15 15 16 16 16 17 17 17 17 17 18 19 19 20 20 20 19 19 19 19 19 19
3 5 5 6 8 8 9 9 10 10 10 10 11 11 12 12 13 13 13 13 14 14 14 14 15 15 16 16 16 16 18 18 19 19 19 19 20 19 19 19 18 19 19
2 4 3 4 6 7 8 8 8 8 9 9 9 10 10 11 11 11 12 12 13 13 14 14 14 14 14 14 15 17 18 18 18 19 19 19 19 19 19 19 19 19 19
2 4 4 2 4 6 6 6 6 7 7 7 7 8 8 9 9 9 10 10 11 11 13 12 13 13 13 14 16 17 17 18 18 19 19 19 18 19 18 19 19 19 19
2 3 4 4 1 3 4 4 4 5 5 5 6 11 10 9 8 8 8 9 9 10 12 14 14 14 15 16 16 16 17 17 18 18 18 19 18 18 18 19 19 19 19
2 1 3 4 4 4 2 2 3 3 3 4 7 10 11 12 12 10 10 9 10 11 13 14 14 15 15 15 16 16 16 17 16 17 17 16 17 17 18 18 18 18 18
1 1 2 4 3 2 2 6 6 7 8 9 10 10 11 11 11 11 12 11 11 12 13 13 14 15 15 15 15 16 16 16 15 14 16 16 16 17 17 18 18 18 18
1 1 2 2 3 2 4 6 6 7 8 9 9 10 9 9 9 10 10 11 12 12 13 13 14 14 15 15 15 15 15 13 14 14 14 16 15 16 17 17 17 17 17
1 0 1 2 4 4 4 5 4 6 6 6 7 7 7 7 8 9 10 10 11 11 11 12 13 13 13 11 12 13 12 12 13 13 13 15 15 15 16 16 16 17 16
-1 -1 2 2 3 3 4 3 2 3 3 3 4 5 5 4 5 5 6 8 9 10 9 9 9 9 9 9 9 10 10 11 12 12 12 14 15 14 14 15 15 16 16
-0 -1 1 1 2 3 3 2 2 2 2 2 3 4 2 2 2 2 2 3 4 4 5 4 5 6 7 7 7 8 9 10 10 11 11 13 11 12 13 14 14 15 15
-0 -1 -1 0 1 1 2 1 1 1 1 1 3 3 2 1 1 1 1 1 2 2 2 3 4 5 6 6 6 7 7 8 9 10 10 10 10 11 11 11 12 13 13
-1 -2 -2 -1 -0 0 0 1 1 1 -0 -1 -0 1 1 -0 -0 0 0 1 1 1 1 2 3 4 4 5 6 6 6 7 8 9 9 9 8 8 8 9 10 10 11
-1 -2 -2 -2 -1 -1 -1 -1 -2 -1 -2 -2 -2 -1 -0 -0 -1 -1 -1 -0 -1 0 1 2 2 3 4 4 5 5 6 7 7 7 7 7 7 8 7 6 7 9 9
-1 -2 -3 -2 -3 -2 -2 -3 -3 -2 -3 -3 -3 -3 -2 -1 -1 -2 -1 -1 -1 -0 -0 1 1 2 3 3 4 5 5 6 6 6 6 5 5 5 6 5 7 6 7
-2 -3 -3 -3 -3 -3 -3 -3 -3 -4 -4 -4 -4 -4 -2 -2 -1 -3 -3 -3 -2 -1 -1 -1 0 1 2 2 3 4 4 4 5 5 4 4 3 3 4 4 4 5 5
-3 -3 -4 -4 -3 -3 -3 -4 -3 -4 -4 -5 -5 -5 -3 -4 -3 -4 -4 -4 -3 -2 -2 -1 -0 0 -0 0 2 4 4 4 4 4 3 3 2 2 3 3 4 4 4
-3 -3 -4 -4 -4 -4 -3 -3 -2 -3 -4 -5 -5 -4 -4 -5 -6 -5 -4 -4 -3 -3 -3 -3 -1 -0 -0 -0 4 5 5 3 3 3 2 2 1 2 2 2 3 3 4
-3 -3 -4 -4 -3 -3 -4 -4 -4 -4 -5 -5 -5 -4 -4 -5 -6 -6 -6 -5 -5 -3 -3 -3 -3 0 -0 -1 1 4 6 7 4 2 2 1 1 1 1 2 2 2 2
-3 -4 -4 -4 -4 -3 -2 -3 -4 -4 -5 -4 -5 -6 -5 -6 -6 -6 -6 -6 -5 -5 -4 -4 -4 -3 -0 -2 -2 0 5 4 1 3 2 1 0 1 1 1 1 2 2
-3 -5 -5 -4 -3 -3 -3 -4 -4 -2 -2 -5 -6 -6 -7 -6 -6 -6 -5 -6 -6 -6 -5 -5 -5 -4 -3 -2 -1 -3 -3 -3 0 2 2 1 -0 0 0 0 1 1 1
-4 -5 -6 -4 -4 -3 -3 -3 -3 -5 -5 -6 -6 -7 -7 -7 -5 -5 -4 -4 -5 -6 -6 -6 -6 -5 -5 -4 -4 -3 -2 -2 -2 -2 1 0 -0 -0 -1 -0 0 1 1
-5 -6 -6 -5 -5 -5 -5 -4 -5 -5 -6 -7 -7 -7 -7 -7 -7 -5 -5 -4 -4 -5 -5 -7 -7 -7 -6 -6 -5 -5 -4 -3 -3 -3 -2 -2 -1 -1 -1 -0 0 0 0
Height
886 882 878 876 877 875 871 867 865 863 860 858 857 855 854 852 851 850 850 848 846 844 841 840 838 837 836 835 833 831 830 829 828 826 826 825 824 824 823 822 823 822 820
887 884 881 877 878 876 873 871 868 865 863 862 860 858 856 855 854 852 851 849 848 845 843 842 841 839 838 837 835 833 833 831 829 829 829 828 827 826 825 823 824 823 822
888 885 882 881 881 878 875 872 869 867 865 864 863 861 860 858 856 854 852 851 850 847 846 844 842 841 840 838 837 836 834 833 832 831 830 830 829 827 826 826 825 824 824
887 885 883 884 882 879 876 874 871 869 866 865 864 863 861 860 858 857 855 853 851 849 846 844 842 843 841 839 837 836 836 834 833 833 833 832 831 829 829 828 827 827 826
887 884 883 884 883 880 877 875 872 870 867 866 865 864 863 862 860 859 857 856 853 851 849 846 844 844 842 840 840 838 837 835 834 835 835 833 832 831 830 830 831 828 828
887 884 883 884 883 881 878 876 873 871 869 867 866 865 863 862 861 859 858 856 855 853 850 849 847 846 842 841 840 839 837 836 836 836 836 835 834 832 831 831 831 829 828
887 884 883 882 882 882 879 877 874 872 870 868 866 865 864 863 860 859 858 857 855 854 851 850 848 845 844 843 842 840 838 836 838 837 837 836 834 833 832 832 832 831 830
886 885 883 881 880 881 879 878 876 873 872 869 867 864 863 862 861 859 858 856 855 853 852 850 848 847 845 843 842 841 839 839 840 838 839 837 836 834 834 833 832 832 831
886 886 884 882 881 880 880 877 876 875 872 870 868 867 865 863 861 859 857 856 854 853 851 850 849 847 845 844 841 841 840 840 839 840 839 838 837 836 835 833 833 833 832
888 887 885 883 883 883 882 877 876 875 873 871 870 868 867 865 863 861 859 856 855 853 852 850 848 847 846 845 843 841 840 839 840 839 840 838 837 836 835 834 834 833 833
889 888 886 884 883 884 882 879 878 877 875 874 872 870 868 867 865 863 861 858 856 854 853 850 849 847 846 844 843 841 840 840 841 841 839 838 837 837 836 835 835 834 832
891 890 887 885 885 884 882 880 879 878 876 875 873 871 869 868 867 864 862 860 857 855 854 851 849 847 846 844 843 842 842 841 841 841 841 838 837 837 837 836 835 834 833
890 890 889 887 887 884 883 883 881 879 878 877 875 873 871 870 868 865 864 862 858 856 854 853 850 848 847 846 845 845 842 842 841 841 840 837 837 837 837 835 835 834 833
891 890 889 889 888 886 885 884 882 881 880 879 876 874 874 872 870 869 867 865 860 858 856 856 852 850 849 848 846 845 844 843 842 841 840 838 837 837 836 837 835 834 833
892 892 892 891 889 888 887 885 884 884 883 881 878 878 877 874 872 872 868 867 863 861 859 858 854 852 850 849 847 845 844 843 843 842 841 840 838 837 836 835 833 833 831
892 893 893 891 890 889 888 887 886 885 886 885 883 882 879 877 875 873 872 870 866 864 862 859 857 854 853 850 848 846 847 846 845 844 843 842 839 837 835 834 833 831 831
895 895 895 894 892 891 890 889 888 888 888 887 886 884 882 880 878 876 874 872 870 866 863 861 858 857 854 850 849 849 848 848 846 845 843 842 841 840 836 834 832 831 832
893 894 894 893 894 894 892 891 891 891 890 889 889 888 885 882 879 878 878 876 873 870 866 864 861 858 855 853 853 852 851 851 849 848 847 845 843 841 838 834 833 832 832
891 892 893 893 893 893 893 893 893 892 893 893 892 889 887 884 882 882 881 879 877 875 872 868 866 862 858 855 855 853 853 852 851 850 849 847 845 842 841 839 835 835 831
891 892 893 893 893 893 894 895 895 895 895 895 894 892 888 887 885 886 885 881 879 878 875 872 869 865 861 857 856 854 854 854 854 853 852 851 848 846 844 840 838 835 833
890 891 893 893 893 895 896 897 898 898 898 897 894 891 889 888 889 888 886 884 883 881 877 872 870 868 864 860 857 856 855 854 856 856 854 853 850 847 845 843 841 838 834
889 890 891 892 892 893 895 897 898 899 897 896 894 893 892 892 890 888 887 886 884 882 880 876 873 872 869 865 863 859 858 857 857 857 857 855 852 850 848 846 843 840 837
888 890 891 891 892 893 893 895 896 897 898 899 897 896 894 893 891 890 888 886 885 882 880 878 875 873 872 870 868 868 863 864 865 859 859 858 855 853 851 848 845 842 839
884 886 889 891 892 893 893 894 895 897 898 898 898 897 896 894 893 891 888 886 884 883 881 880 878 877 875 874 873 875 877 877 874 865 861 860 858 856 853 850 846 843 839
881 884 887 889 890 892 893 894 894 895 895 896 896 897 896 895 893 891 888 886 884 883 883 882 881 880 879 878 878 880 878 876 877 876 865 861 860 857 854 850 846 842 838
879 882 885 887 890 891 892 893 894 896 896 897 897 898 897 896 894 891 889 887 886 884 884 884 883 882 882 881 882 881 880 879 878 878 875 867 862 855 853 850 845 841 838
Wind_Speed
10 11 20 25 23 24 24 24 22 20 21 25 24 23 23 23 22 21 20 19 20 20 20 19 20 19 18 17 16 16 15 14 14 13 14 13 12 12 12 12 11 10 11
10 7 17 24 21 21 22 22 22 21 18 20 24 23 23 21 22 22 21 22 19 19 20 20 18 18 18 17 17 16 14 13 12 12 12 12 11 10 10 10 10 8 9
9 5 11 20 18 19 20 21 21 21 18 16 19 22 22 20 19 20 22 21 21 21 20 19 19 18 17 16 16 14 14 13 11 10 13 9 8 9 9 9 8 7 7
8 3 12 15 16 17 18 19 20 20 18 19 14 20 18 18 18 17 18 18 19 19 20 19 19 19 16 15 15 15 13 13 12 11 8 10 8 6 7 8 6 5 5
6 3 12 13 15 16 18 18 18 18 18 17 17 17 18 18 19 16 17 16 17 17 17 17 17 16 15 14 14 13 12 12 13 11 9 11 9 8 7 8 7 5 3
5 5 9 11 14 15 16 17 18 18 17 17 17 17 16 17 18 15 14 16 17 16 16 16 15 15 16 14 14 13 11 11 12 9 10 10 11 11 7 7 9 7 2
5 6 6 10 12 13 15 16 16 16 17 16 15 17 16 18 17 18 15 15 18 16 15 15 14 14 14 13 12 10 9 10 10 10 10 11 13 12 11 7 8 8 4
6 6 8 11 10 13 14 15 16 16 16 16 14 13 14 14 16 15 17 15 15 15 12 12 13 12 11 11 10 10 10 10 10 10 10 10 14 13 11 9 8 7 6
7 7 7 9 11 12 14 14 15 15 15 16 14 13 12 12 12 13 15 17 16 14 10 8 9 9 10 10 10 10 9 9 10 10 10 13 15 13 12 11 9 7 7
7 7 8 8 8 9 9 13 14 14 15 15 14 13 11 13 13 14 12 14 13 12 11 10 6 5 7 10 10 10 9 9 11 10 10 13 15 15 14 12 11 11 10
7 8 8 8 8 8 8 11 12 13 14 13 13 13 12 12 12 13 15 15 11 13 11 11 10 8 5 6 9 10 10 11 10 10 9 12 14 16 14 12 13 14 14
5 6 7 8 8 8 8 9 10 11 13 14 13 13 12 13 14 13 14 13 14 12 14 13 12 11 11 12 12 11 11 11 9 9 9 10 12 17 16 13 13 13 14
4 5 6 7 8 9 9 9 9 11 11 12 14 14 13 13 13 15 15 16 16 17 16 15 15 15 15 13 13 12 12 11 10 9 10 12 10 18 15 16 15 14 14
4 4 5 6 7 8 9 10 10 11 11 12 14 15 13 13 14 14 15 16 17 18 17 16 15 15 15 13 13 12 12 12 12 10 10 14 17 18 16 15 16 17 16
5 4 4 5 6 7 8 9 10 10 12 12 14 15 14 14 14 14 15 16 17 17 17 16 16 15 15 14 14 14 13 13 14 12 10 17 19 21 21 20 18 16 19
6 4 3 4 5 6 8 8 9 10 10 11 13 14 15 14 14 14 14 15 16 17 16 16 16 15 14 13 14 14 13 13 15 14 13 12 19 21 23 24 23 21 21
6 4 3 3 4 5 6 7 8 8 9 9 10 13 14 14 13 13 14 15 15 16 16 16 16 15 15 15 14 13 13 15 15 16 17 16 17 19 22 24 23 18 20
6 5 3 3 3 4 5 6 7 7 8 9 9 11 13 14 14 13 13 14 15 16 16 15 17 17 17 16 13 11 11 14 16 18 18 20 19 20 20 24 23 21 22
8 6 4 3 3 4 4 6 7 8 8 8 8 9 12 13 13 13 12 12 12 13 14 14 15 17 18 16 12 9 9 13 16 17 20 20 23 22 20 23 23 20 24
8 6 5 3 3 5 4 4 6 6 7 7 8 9 11 12 13 9 10 11 12 12 13 13 13 15 18 17 11 7 8 7 19 18 20 17 24 22 22 23 21 22 24
10 7 6 4 3 5 4 4 3 3 4 6 7 9 10 10 10 10 8 10 10 12 14 15 12 15 19 21 8 8 8 2 18 15 19 18 26 23 23 23 23 23 22
12 10 7 6 5 5 6 5 3 3 4 4 6 7 8 8 9 9 9 9 10 10 13 15 16 13 15 22 12 5 4 2 15 11 18 19 27 22 23 24 23 22 23
14 11 9 8 7 6 8 8 6 5 3 2 3 4 6 7 8 9 10 9 10 11 13 15 15 17 15 16 21 10 4 4 15 8 14 16 26 22 22 22 22 21 21
18 14 13 10 9 8 8 10 11 7 5 4 3 2 3 6 7 9 10 11 11 11 13 13 14 14 13 15 9 14 9 5 4 5 11 14 23 22 23 21 22 19 21
18 15 13 13 11 9 8 9 9 7 7 5 3 2 2 3 6 8 9 11 12 11 11 12 12 13 12 11 11 8 7 5 6 4 7 18 22 21 24 15 20 20 22
16 15 15 14 12 11 10 9 8 7 6 3 3 1 1 1 3 6 8 9 10 10 11 10 10 10 9 8 7 6 6 4 7 5 7 20 22 17 22 21 21 20 22
Wind_Direction
335 350 23 4 8 14 20 28 35 37 38 38 42 49 50 49 51 50 47 45 43 43 40 40 40 41 40 43 48 47 46 51 53 51 56 61 63 62 60 67 64 64 71
335 356 27 22 11 15 22 29 36 39 42 39 37 42 46 45 43 45 45 47 45 44 42 42 40 39 38 40 40 42 39 42 44 47 55 38 42 51 53 58 71 69 68
349 20 34 20 14 20 23 29 35 39 42 44 43 41 44 45 43 43 42 43 41 42 43 42 41 41 39 39 40 35 34 33 36 46 43 34 35 40 41 47 49 59 72
350 38 43 10 18 26 28 30 33 37 40 44 51 42 45 44 43 48 45 44 42 38 36 35 43 40 38 38 35 30 29 31 33 40 32 27 37 28 37 37 42 37 66
350 40 44 19 24 30 32 33 35 39 40 41 42 47 44 43 41 37 41 44 45 43 38 34 33 38 43 35 32 30 31 30 35 25 21 21 25 13 24 27 12 27 82
4 29 46 27 30 35 37 35 38 39 42 43 43 43 43 41 42 40 35 38 42 41 42 39 36 31 32 29 30 33 33 35 37 24 18 13 19 18 7 14 15 17 41
22 37 39 38 42 40 43 40 41 43 42 44 47 45 46 43 42 40 42 40 36 36 32 33 33 36 35 32 35 37 41 47 32 25 22 22 10 15 9 358 9 7 15
46 38 49 53 55 51 47 46 45 48 49 46 48 53 45 46 43 43 39 36 35 34 27 16 24 28 28 29 32 38 39 48 31 29 27 30 10 12 9 8 5 355 355
49 48 50 51 50 51 50 51 49 50 53 55 59 63 57 49 44 41 38 37 36 34 29 17 8 14 16 15 22 28 33 34 37 30 36 25 23 15 14 20 6 1 347
54 50 47 54 51 43 50 63 64 62 64 65 65 64 54 50 46 41 39 38 36 31 34 34 16 334 360 4 9 17 19 25 24 28 31 27 25 18 21 16 10 8 5
48 48 50 52 52 51 50 57 56 60 60 57 55 55 49 45 45 45 48 47 37 38 35 35 31 23 4 5 5 8 17 15 15 17 21 23 26 18 20 21 19 15 13
61 43 54 56 60 58 51 51 47 48 48 47 48 47 47 44 45 48 46 45 44 38 35 30 27 25 21 16 6 7 9 6 7 8 7 5 22 15 14 16 16 15 15
80 64 68 67 61 64 57 53 47 42 41 42 43 44 43 40 36 36 33 33 35 35 28 25 25 25 22 19 12 7 5 5 359 358 355 0 4 11 8 9 10 13 15
107 82 75 74 71 68 66 59 56 53 48 44 42 44 38 38 35 33 32 29 32 29 26 22 22 20 21 18 14 10 9 7 360 355 356 1 12 13 13 7 5 7 7
149 124 105 89 80 72 68 62 59 54 49 46 47 45 44 41 35 33 33 31 31 29 26 19 19 17 14 14 15 14 12 12 9 3 3 7 24 29 30 25 22 11 8
163 146 122 104 89 81 72 68 65 56 50 49 48 45 45 43 40 37 34 32 30 28 24 20 16 13 11 10 13 16 21 25 24 25 18 14 17 21 24 24 25 21 15
169 154 116 102 94 83 76 71 67 60 54 51 48 44 44 44 39 35 34 32 27 25 26 24 21 16 14 15 15 17 27 37 32 31 30 19 13 12 17 18 17 5 9
172 157 136 121 109 90 80 74 68 66 57 51 47 44 44 45 47 39 36 34 29 27 28 24 20 17 14 13 15 26 42 42 39 34 31 25 25 11 7 8 10 15 10
178 169 153 139 132 123 100 79 71 62 59 53 48 48 47 45 46 39 36 32 31 30 28 26 23 22 13 9 14 26 44 45 34 33 30 26 14 14 10 1 8 7 3
178 174 168 164 159 158 139 106 78 69 62 58 55 50 47 44 40 36 32 33 35 36 34 34 32 26 18 2 3 31 46 69 34 32 24 25 14 13 8 5 5 356 359
184 178 176 166 171 164 161 150 116 97 72 59 53 53 51 47 39 40 35 32 37 40 36 34 33 30 23 14 21 33 38 85 20 29 19 18 10 11 7 6 0 359 358
191 187 181 180 182 180 182 188 156 122 90 83 67 55 54 48 45 42 38 37 37 41 41 39 39 41 38 30 19 7 17 45 355 11 11 13 6 5 4 359 359 0 357
195 191 185 192 188 190 188 182 172 157 141 118 68 58 48 55 52 48 47 43 39 42 39 37 37 40 37 40 41 37 10 10 333 350 360 4 0 359 356 354 357 356 356
192 187 191 194 196 191 183 182 180 187 179 180 148 92 62 59 56 53 52 51 46 41 38 35 35 37 43 40 41 42 56 41 3 327 347 355 354 351 348 346 349 354 352
189 186 190 193 193 190 182 178 185 177 179 172 160 139 90 53 55 55 56 55 51 44 37 34 34 37 38 47 45 32 34 51 20 328 314 334 341 344 340 341 345 348 350
183 182 190 193 195 192 185 179 174 170 166 165 185 204 275 27 40 48 55 57 52 47 38 32 28 31 34 39 39 38 40 20 347 343 314 323 329 329 329 333 339 341 346